KLML101 LICA-LCLK

Flight info

Callsign KLML101
Flight time N/A
Altitude 35000
Route CRN DCT RUTOM UN604 ATV UL607 KEA UL995 RDS UM601 EVENO M601 BONEK
Aircraft L101/H-SDFGHIRWXY/S

Departure

Time 2026-04-16 13:04
Airport Lamezia Terme Sant'Eufemia International Airport (LICA)

Arrival

Time N/A
Airport Larnaca International Airport (LCLK)
Time Latitude Longitude Altitude Speed Heading
2026-04-16 12:41 38.90856 16.24603 41 ft 0 kts 53°
2026-04-16 12:47 38.90851 16.24595 41 ft 2 kts 49°
2026-04-16 12:47 38.90837 16.24578 38 ft 2 kts 25°
2026-04-16 12:47 38.90819 16.24571 37 ft 3 kts 356°
2026-04-16 12:48 38.90799 16.24575 39 ft 3 kts 342°
2026-04-16 12:48 38.90780 16.24583 39 ft 3 kts 353°
2026-04-16 12:48 38.90770 16.24583 40 ft 1 kts
2026-04-16 12:48 38.90767 16.24583 39 ft 0 kts
2026-04-16 12:55 38.90768 16.24583 41 ft 0 kts
2026-04-16 12:56 38.90770 16.24585 41 ft 1 kts 17°
2026-04-16 12:56 38.90784 16.24600 38 ft 4 kts 57°
2026-04-16 12:56 38.90790 16.24632 41 ft 3 kts 96°
2026-04-16 12:56 38.90787 16.24654 41 ft 0 kts 98°
2026-04-16 12:57 38.90786 16.24664 41 ft 3 kts 98°
2026-04-16 12:57 38.90780 16.24714 40 ft 8 kts 98°
2026-04-16 12:57 38.90769 16.24802 42 ft 12 kts 98°
2026-04-16 12:58 38.90735 16.24907 43 ft 14 kts 131°
2026-04-16 12:58 38.90672 16.25004 44 ft 14 kts 105°
2026-04-16 12:58 38.90662 16.25096 45 ft 10 kts 103°
2026-04-16 12:58 38.90649 16.25197 45 ft 13 kts 98°
2026-04-16 12:59 38.90634 16.25333 46 ft 17 kts 98°
2026-04-16 12:59 38.90615 16.25501 47 ft 21 kts 98°
2026-04-16 12:59 38.90592 16.25700 46 ft 24 kts 98°
2026-04-16 13:00 38.90545 16.26098 52 ft 5 kts 98°
2026-04-16 13:00 38.90526 16.26148 47 ft 8 kts 131°
2026-04-16 13:00 38.90489 16.26191 48 ft 0 kts 147°
2026-04-16 13:02 38.90482 16.26197 48 ft 3 kts 147°
2026-04-16 13:02 38.90449 16.26222 48 ft 8 kts 150°
2026-04-16 13:02 38.90389 16.26261 48 ft 11 kts 160°
2026-04-16 13:03 38.90323 16.26223 48 ft 12 kts 236°
2026-04-16 13:03 38.90319 16.26131 48 ft 11 kts 278°
2026-04-16 13:03 38.90322 16.26107 47 ft 5 kts 278°
2026-04-16 13:03 38.90369 16.25719 45 ft 68 kts 278°
2026-04-16 13:04 38.90465 16.24891 45 ft 121 kts 278°
2026-04-16 13:04 38.90598 16.23644 103 ft 150 kts 276°
2026-04-16 13:04 38.90757 16.22273 668 ft 160 kts 278°
2026-04-16 13:04 38.90931 16.20844 1233 ft 165 kts 278°
2026-04-16 13:05 38.91114 16.19353 1048 ft 173 kts 278°
2026-04-16 13:05 38.91316 16.17689 123 ft 203 kts 278°
2026-04-16 13:05 38.91522 16.16137 523 ft 156 kts 278°
2026-04-16 13:05 38.91719 16.14764 268 ft 156 kts 278°
2026-04-16 13:06 38.91917 16.13414 49 ft 151 kts 279°
2026-04-16 13:06 38.92088 16.12244 239 ft 122 kts 279°
2026-04-16 13:06 38.92266 16.11011 172 ft 150 kts 279°
2026-04-16 13:06 38.92464 16.09651 887 ft 158 kts 279°
2026-04-16 13:07 38.92675 16.08176 1412 ft 177 kts 280°
2026-04-16 13:07 38.92892 16.06393 1610 ft 225 kts 274°
2026-04-16 13:07 38.92536 16.04341 1700 ft 247 kts 246°
2026-04-16 13:07 38.91413 16.02628 1779 ft 257 kts 219°
2026-04-16 13:08 38.89826 16.01613 2037 ft 261 kts 200°
2026-04-16 13:08 38.88066 16.00981 2279 ft 265 kts 186°
2026-04-16 13:08 38.86291 16.01291 2511 ft 257 kts 153°
2026-04-16 13:08 38.84958 16.02735 3170 ft 252 kts 121°
2026-04-16 13:09 38.84459 16.04605 3984 ft 197 kts 94°
2026-04-16 13:09 38.84510 16.06385 4783 ft 205 kts 83°
2026-04-16 13:09 38.84753 16.08211 5724 ft 210 kts 79°
2026-04-16 13:09 38.85050 16.10056 6735 ft 212 kts 79°
2026-04-16 13:10 38.85357 16.11923 7755 ft 214 kts 80°
2026-04-16 13:10 38.85659 16.13799 8852 ft 216 kts 81°
2026-04-16 13:10 38.85960 16.15706 9982 ft 219 kts 81°
2026-04-16 13:10 38.86258 16.17636 11059 ft 222 kts 81°
2026-04-16 13:11 38.86556 16.19593 12178 ft 226 kts 80°
2026-04-16 13:11 38.86867 16.21646 12998 ft 243 kts 79°
2026-04-16 13:11 38.87208 16.23895 13687 ft 271 kts 79°
2026-04-16 13:11 38.87583 16.26362 14316 ft 288 kts 79°
2026-04-16 13:12 38.87963 16.28843 14877 ft 268 kts 79°
2026-04-16 13:12 38.88293 16.30991 15627 ft 221 kts 79°
2026-04-16 13:12 38.88566 16.32779 16043 ft 195 kts 78°
2026-04-16 13:12 38.88847 16.34618 16186 ft 229 kts 78°
2026-04-16 13:13 38.89166 16.36697 16329 ft 243 kts 79°
2026-04-16 13:13 38.89494 16.38849 16469 ft 248 kts 79°
2026-04-16 13:13 38.89826 16.41028 16590 ft 250 kts 79°
2026-04-16 13:13 38.90159 16.43231 16740 ft 261 kts 79°
2026-04-16 13:14 38.90524 16.45650 16882 ft 293 kts 79°
2026-04-16 13:14 38.90921 16.48276 17032 ft 305 kts 79°
2026-04-16 13:14 38.91325 16.50965 17237 ft 306 kts 79°
2026-04-16 13:14 38.91729 16.53665 17665 ft 310 kts 79°
2026-04-16 13:15 38.92137 16.56396 18087 ft 312 kts 79°
2026-04-16 13:15 38.92546 16.59148 18501 ft 315 kts 79°
2026-04-16 13:15 38.92956 16.61921 18877 ft 317 kts 79°
2026-04-16 13:15 38.93368 16.64709 19257 ft 319 kts 79°
2026-04-16 13:16 38.93783 16.67520 19648 ft 321 kts 79°
2026-04-16 13:16 38.94199 16.70351 20040 ft 323 kts 81°
2026-04-16 13:16 38.94617 16.73205 20437 ft 327 kts 81°
2026-04-16 13:16 38.95040 16.76121 20851 ft 342 kts 81°
2026-04-16 13:17 38.95485 16.79241 21272 ft 368 kts 81°
2026-04-16 13:17 38.95955 16.82584 21702 ft 392 kts 81°
2026-04-16 13:17 38.96452 16.86118 22131 ft 409 kts 82°
2026-04-16 13:17 38.96963 16.89747 22531 ft 416 kts 81°
2026-04-16 13:18 38.97484 16.93427 22969 ft 421 kts 81°
2026-04-16 13:18 38.98013 16.97142 23408 ft 424 kts 81°
2026-04-16 13:18 38.98547 17.00886 23808 ft 427 kts 81°
2026-04-16 13:18 38.98970 17.04669 24158 ft 428 kts 89°
2026-04-16 13:19 38.98677 17.08434 24572 ft 422 kts 105°
2026-04-16 13:19 38.97813 17.12057 24955 ft 426 kts 108°
2026-04-16 13:19 38.97017 17.15725 25342 ft 427 kts 104°
2026-04-16 13:19 38.96409 17.19410 25731 ft 428 kts 102°
2026-04-16 13:20 38.95794 17.23164 26120 ft 430 kts 104°
2026-04-16 13:20 38.95044 17.26944 26525 ft 432 kts 107°
2026-04-16 13:20 38.94192 17.30647 26935 ft 433 kts 108°
2026-04-16 13:20 38.93299 17.34342 27350 ft 435 kts 108°
2026-04-16 13:21 38.92404 17.38066 27763 ft 437 kts 107°
2026-04-16 13:21 38.91524 17.41767 28191 ft 439 kts 107°
2026-04-16 13:21 38.90629 17.45532 28620 ft 442 kts 107°
2026-04-16 13:21 38.89721 17.49316 29061 ft 445 kts 107°
2026-04-16 13:22 38.88804 17.53109 29509 ft 447 kts 107°
2026-04-16 13:22 38.87875 17.56936 29969 ft 449 kts 107°
2026-04-16 13:22 38.86941 17.60772 30377 ft 451 kts 107°
2026-04-16 13:22 38.86002 17.64627 30757 ft 454 kts 107°
2026-04-16 13:23 38.85057 17.68502 31161 ft 456 kts 107°
2026-04-16 13:23 38.84105 17.72396 31567 ft 459 kts 107°
2026-04-16 13:23 38.83148 17.76302 31967 ft 462 kts 107°
2026-04-16 13:23 38.82177 17.80257 32391 ft 466 kts 107°
2026-04-16 13:24 38.81201 17.84229 32810 ft 468 kts 107°
2026-04-16 13:24 38.80223 17.88201 33247 ft 468 kts 107°
2026-04-16 13:24 38.79243 17.92177 33671 ft 467 kts 107°
2026-04-16 13:24 38.78264 17.96142 34100 ft 466 kts 107°
2026-04-16 13:25 38.77283 18.00105 34485 ft 467 kts 107°
2026-04-16 13:25 38.76630 18.02738 34679 ft 469 kts 107°
2026-04-16 13:25 38.75642 18.06719 34910 ft 469 kts 107°
2026-04-16 13:25 38.74651 18.10706 35085 ft 470 kts 107°
2026-04-16 13:26 38.73658 18.14693 35016 ft 471 kts 107°
2026-04-16 13:26 38.71661 18.22693 34944 ft 471 kts 107°
2026-04-16 13:27 38.69663 18.30673 34966 ft 471 kts 107°
2026-04-16 13:27 38.67660 18.38647 34964 ft 471 kts 108°
2026-04-16 13:28 38.65644 18.46648 34953 ft 473 kts 108°
2026-04-16 13:28 38.63619 18.54660 34955 ft 473 kts 108°
2026-04-16 13:29 38.61588 18.62669 34957 ft 473 kts 108°
2026-04-16 13:29 38.59549 18.70671 34957 ft 473 kts 108°
2026-04-16 13:30 38.57507 18.78669 34947 ft 473 kts 109°
2026-04-16 13:30 38.55469 18.86644 34948 ft 472 kts 109°
2026-04-16 13:31 38.53419 18.94610 34947 ft 472 kts 109°
2026-04-16 13:31 38.51654 19.02700 34939 ft 473 kts 103°
2026-04-16 13:32 38.50302 19.10926 34936 ft 473 kts 104°
2026-04-16 13:32 38.48884 19.19101 34933 ft 472 kts 104°
2026-04-16 13:33 38.47545 19.27311 34935 ft 472 kts 103°
2026-04-16 13:33 38.46242 19.35464 34935 ft 472 kts 103°
2026-04-16 13:34 38.44924 19.43667 34929 ft 472 kts 103°
2026-04-16 13:34 38.43607 19.51856 34930 ft 471 kts 103°
2026-04-16 13:35 38.42284 19.60048 34926 ft 472 kts 103°
2026-04-16 13:35 38.40956 19.68239 34924 ft 472 kts 103°
2026-04-16 13:36 38.39620 19.76437 34921 ft 472 kts 103°
2026-04-16 13:36 38.38285 19.84598 34920 ft 470 kts 104°
2026-04-16 13:37 38.36943 19.92758 34919 ft 470 kts 104°
2026-04-16 13:37 38.35597 20.00908 34911 ft 470 kts 104°
2026-04-16 13:38 38.34245 20.09056 34909 ft 470 kts 104°
2026-04-16 13:38 38.32891 20.17182 34907 ft 466 kts 104°
2026-04-16 13:39 38.31569 20.25266 34898 ft 467 kts 102°
2026-04-16 13:39 38.30483 20.33424 34892 ft 467 kts 101°
2026-04-16 13:40 38.29394 20.41516 34888 ft 467 kts 102°
2026-04-16 13:40 38.28326 20.49662 34882 ft 465 kts 101°
2026-04-16 13:41 38.27285 20.57772 34886 ft 464 kts 101°
2026-04-16 13:41 38.26236 20.65881 34903 ft 464 kts 101°
2026-04-16 13:42 38.25184 20.73994 34904 ft 464 kts 101°
2026-04-16 13:42 38.24130 20.82088 34900 ft 464 kts 101°
2026-04-16 13:43 38.23070 20.90187 34900 ft 464 kts 101°
2026-04-16 13:43 38.22005 20.98281 34899 ft 464 kts 101°
2026-04-16 13:44 38.20933 21.06381 34889 ft 464 kts 101°
2026-04-16 13:44 38.19857 21.14473 34877 ft 464 kts 101°
2026-04-16 13:45 38.18773 21.22574 34885 ft 465 kts 101°
2026-04-16 13:45 38.17684 21.30676 34878 ft 465 kts 101°
2026-04-16 13:46 38.16588 21.38776 34879 ft 465 kts 101°
2026-04-16 13:46 38.15425 21.46854 34878 ft 465 kts 103°
2026-04-16 13:47 38.14128 21.54895 34880 ft 465 kts 103°
2026-04-16 13:47 38.12877 21.62941 34915 ft 465 kts 102°
2026-04-16 13:48 38.11648 21.71011 34915 ft 465 kts 102°
2026-04-16 13:48 38.10412 21.79065 34917 ft 465 kts 102°
2026-04-16 13:49 38.09168 21.87140 34932 ft 466 kts 102°
2026-04-16 13:49 38.07922 21.95207 34940 ft 466 kts 102°
2026-04-16 13:50 38.06668 22.03282 34942 ft 466 kts 102°
2026-04-16 13:50 38.05417 22.11308 34955 ft 466 kts 102°
2026-04-16 13:51 38.04151 22.19392 34955 ft 469 kts 103°
2026-04-16 13:51 38.02868 22.27535 34967 ft 469 kts 103°
2026-04-16 13:52 38.01583 22.35657 34972 ft 469 kts 103°
2026-04-16 13:52 38.00298 22.43746 34974 ft 469 kts 103°
2026-04-16 13:53 37.99002 22.51861 34988 ft 471 kts 104°
2026-04-16 13:53 37.97693 22.60007 34981 ft 473 kts 104°
2026-04-16 13:54 37.96420 22.68208 34987 ft 473 kts 102°
2026-04-16 13:54 37.95334 22.76368 34983 ft 473 kts 102°
2026-04-16 13:55 37.94249 22.84595 34986 ft 470 kts 103°
2026-04-16 13:55 37.93231 22.92780 34978 ft 472 kts 100°
2026-04-16 13:56 37.92800 23.01099 34978 ft 474 kts 97°
2026-04-16 13:56 37.92400 23.09471 34981 ft 476 kts 97°
2026-04-16 13:57 37.91983 23.17770 34978 ft 476 kts 98°
2026-04-16 13:57 37.91592 23.26132 34974 ft 476 kts 98°
2026-04-16 13:58 37.91003 23.38674 34979 ft 476 kts 98°
2026-04-16 13:58 37.90603 23.47054 34978 ft 479 kts 98°
2026-04-16 13:59 37.90197 23.55480 34973 ft 479 kts 98°
2026-04-16 13:59 37.89817 23.63263 34965 ft 479 kts 98°
2026-04-16 14:00 37.89399 23.71671 34964 ft 478 kts 98°
2026-04-16 14:00 37.88972 23.75819 34945 ft 472 kts 109°
2026-04-16 14:00 37.87737 23.79605 34952 ft 463 kts 126°
2026-04-16 14:01 37.83917 23.86104 34960 ft 461 kts 129°
2026-04-16 14:01 37.80271 23.92699 34961 ft 461 kts 129°
2026-04-16 14:02 37.76326 23.99063 34940 ft 459 kts 133°
2026-04-16 14:02 37.72232 24.05253 34942 ft 459 kts 133°
2026-04-16 14:03 37.68109 24.11462 34946 ft 463 kts 133°
2026-04-16 14:03 37.63978 24.17639 34938 ft 463 kts 133°
2026-04-16 14:04 37.59814 24.23836 34930 ft 463 kts 133°
2026-04-16 14:04 37.56267 24.30608 34919 ft 471 kts 114°
2026-04-16 14:05 37.54122 24.38432 34925 ft 472 kts 114°
2026-04-16 14:05 37.51699 24.46136 34908 ft 474 kts 114°
2026-04-16 14:06 37.49507 24.53985 34913 ft 476 kts 111°
2026-04-16 14:06 37.47430 24.61902 34909 ft 476 kts 111°
2026-04-16 14:07 37.45345 24.69794 34909 ft 476 kts 111°
2026-04-16 14:07 37.43280 24.77635 34907 ft 476 kts 111°
2026-04-16 14:08 37.41199 24.85537 34895 ft 476 kts 111°
2026-04-16 14:08 37.39112 24.93435 34911 ft 476 kts 111°
2026-04-16 14:09 37.37013 25.01325 34904 ft 476 kts 112°
2026-04-16 14:09 37.34713 25.09142 34906 ft 478 kts 113°
2026-04-16 14:10 37.32864 25.15697 34899 ft 478 kts 112°
2026-04-16 14:10 37.30651 25.23572 34897 ft 478 kts 112°
2026-04-16 14:11 37.28421 25.31435 34882 ft 478 kts 113°
2026-04-16 14:11 37.26190 25.39297 34925 ft 478 kts 113°
2026-04-16 14:12 37.23942 25.47146 34921 ft 477 kts 114°
2026-04-16 14:12 37.21490 25.54875 34917 ft 476 kts 116°
2026-04-16 14:13 37.18953 25.62550 34918 ft 476 kts 116°
2026-04-16 14:13 37.16430 25.70239 34913 ft 477 kts 116°
2026-04-16 14:14 37.13881 25.77905 34901 ft 477 kts 116°
2026-04-16 14:14 37.11334 25.85528 34898 ft 477 kts 116°
2026-04-16 14:15 37.08768 25.93189 34897 ft 477 kts 116°
2026-04-16 14:15 37.06189 26.00868 34895 ft 479 kts 116°
2026-04-16 14:16 37.03599 26.08556 34889 ft 479 kts 116°
2026-04-16 14:16 37.01010 26.16227 34883 ft 477 kts 116°
2026-04-16 14:17 36.98422 26.23869 34879 ft 477 kts 117°
2026-04-16 14:17 36.95806 26.31512 34878 ft 479 kts 117°
2026-04-16 14:18 36.93177 26.39183 34874 ft 479 kts 117°
2026-04-16 14:18 36.90569 26.46855 34872 ft 479 kts 117°
2026-04-16 14:19 36.87954 26.54518 34867 ft 479 kts 117°
2026-04-16 14:19 36.85314 26.62182 34869 ft 481 kts 117°
2026-04-16 14:20 36.82677 26.69858 34863 ft 481 kts 117°
2026-04-16 14:20 36.80054 26.77472 34854 ft 481 kts 117°
2026-04-16 14:21 36.77416 26.85132 34853 ft 481 kts 117°
2026-04-16 14:21 36.74765 26.92819 34851 ft 482 kts 117°
2026-04-16 14:22 36.72126 27.00453 34851 ft 482 kts 117°
2026-04-16 14:22 36.69470 27.08129 34851 ft 482 kts 117°
2026-04-16 14:23 36.66800 27.15784 34845 ft 482 kts 117°
2026-04-16 14:23 36.64089 27.23469 34857 ft 486 kts 117°
2026-04-16 14:24 36.61383 27.31177 34834 ft 486 kts 117°
2026-04-16 14:24 36.58681 27.38884 34856 ft 486 kts 117°
2026-04-16 14:25 36.55972 27.46586 34856 ft 486 kts 117°
2026-04-16 14:25 36.53245 27.54320 34832 ft 489 kts 117°
2026-04-16 14:26 36.50511 27.62061 34849 ft 489 kts 117°
2026-04-16 14:26 36.47773 27.69796 34847 ft 489 kts 117°
2026-04-16 14:27 36.45015 27.77517 34854 ft 489 kts 118°
2026-04-16 14:27 36.42236 27.85222 34834 ft 489 kts 117°
2026-04-16 14:28 36.39473 27.92934 34851 ft 489 kts 117°
2026-04-16 14:28 36.36716 28.00636 34850 ft 489 kts 117°
2026-04-16 14:29 36.34046 28.08411 34844 ft 494 kts 113°
2026-04-16 14:29 36.31939 28.16555 34846 ft 496 kts 111°
2026-04-16 14:30 36.29853 28.24659 34841 ft 496 kts 111°
2026-04-16 14:30 36.27733 28.32795 34839 ft 496 kts 111°
2026-04-16 14:31 36.25641 28.40955 34840 ft 498 kts 111°
2026-04-16 14:31 36.23577 28.49150 34833 ft 499 kts 110°
2026-04-16 14:32 36.21554 28.57360 34833 ft 498 kts 111°
2026-04-16 14:32 36.19407 28.65509 34834 ft 498 kts 111°
2026-04-16 14:33 36.17265 28.73688 34830 ft 500 kts 111°
2026-04-16 14:33 36.15115 28.81877 34824 ft 500 kts 111°
2026-04-16 14:34 36.12963 28.90044 34824 ft 500 kts 111°
2026-04-16 14:34 36.10801 28.98221 34820 ft 502 kts 111°
2026-04-16 14:35 36.08624 29.06426 34819 ft 502 kts 111°
2026-04-16 14:35 36.06441 29.14636 34821 ft 502 kts 111°
2026-04-16 14:36 36.04253 29.22834 34821 ft 502 kts 111°
2026-04-16 14:36 36.02050 29.31058 34822 ft 505 kts 111°
2026-04-16 14:37 35.99836 29.39301 34817 ft 506 kts 111°
2026-04-16 14:37 35.97617 29.47539 34817 ft 506 kts 111°
2026-04-16 14:38 35.95392 29.55770 34811 ft 509 kts 111°
2026-04-16 14:38 35.93122 29.64051 34815 ft 509 kts 112°
2026-04-16 14:39 35.90853 29.72335 34810 ft 510 kts 111°
2026-04-16 14:39 35.88625 29.80587 34811 ft 510 kts 111°
2026-04-16 14:40 35.86379 29.88898 34812 ft 511 kts 111°
2026-04-16 14:40 35.84128 29.97207 34808 ft 512 kts 111°
2026-04-16 14:41 35.81962 30.05575 34809 ft 512 kts 110°
2026-04-16 14:41 35.79855 30.13955 34806 ft 514 kts 110°
2026-04-16 14:42 35.77726 30.22356 34807 ft 514 kts 110°
2026-04-16 14:42 35.75604 30.30757 34805 ft 514 kts 110°
2026-04-16 14:43 35.73479 30.39154 34807 ft 514 kts 110°
2026-04-16 14:43 35.71343 30.47564 34805 ft 515 kts 110°
2026-04-16 14:44 35.69202 30.55974 34799 ft 515 kts 110°
2026-04-16 14:44 35.67054 30.64380 34799 ft 515 kts 110°
2026-04-16 14:45 35.64898 30.72789 34380 ft 516 kts 110°
2026-04-16 14:45 35.63818 30.76990 33995 ft 515 kts 110°
2026-04-16 14:45 35.62737 30.81192 33582 ft 514 kts 110°
2026-04-16 14:46 35.61659 30.85387 33143 ft 515 kts 110°
2026-04-16 14:46 35.60588 30.89593 32726 ft 516 kts 110°
2026-04-16 14:46 35.59521 30.93753 32311 ft 516 kts 110°
2026-04-16 14:46 35.58440 30.97946 31810 ft 516 kts 110°
2026-04-16 14:47 35.57365 31.02140 31302 ft 511 kts 109°
2026-04-16 14:47 35.56318 31.06262 30791 ft 499 kts 109°
2026-04-16 14:47 35.55295 31.10303 30300 ft 493 kts 109°
2026-04-16 14:47 35.54282 31.14294 29828 ft 489 kts 109°
2026-04-16 14:48 35.53271 31.18270 29247 ft 485 kts 109°
2026-04-16 14:48 35.52273 31.22192 28701 ft 480 kts 109°
2026-04-16 14:48 35.51281 31.26083 28138 ft 475 kts 109°
2026-04-16 14:48 35.50298 31.29939 27626 ft 471 kts 109°
2026-04-16 14:49 35.49323 31.33760 27099 ft 467 kts 109°
2026-04-16 14:49 35.48354 31.37546 26587 ft 463 kts 109°
2026-04-16 14:49 35.47394 31.41296 26091 ft 459 kts 109°
2026-04-16 14:49 35.46440 31.45014 25597 ft 455 kts 109°
2026-04-16 14:50 35.45493 31.48699 25114 ft 451 kts 109°
2026-04-16 14:50 35.44553 31.52351 24622 ft 447 kts 109°
2026-04-16 14:50 35.43620 31.55972 24167 ft 444 kts 109°
2026-04-16 14:50 35.42690 31.59570 23701 ft 441 kts 109°
2026-04-16 14:51 35.41766 31.63146 23211 ft 437 kts 110°
2026-04-16 14:51 35.40863 31.66638 22673 ft 434 kts 110°
2026-04-16 14:51 35.39952 31.70150 22145 ft 430 kts 110°
2026-04-16 14:51 35.39047 31.73617 21633 ft 426 kts 109°
2026-04-16 14:53 35.32920 31.97106 17971 ft 400 kts 108°
2026-04-16 14:53 35.32072 32.00334 17386 ft 396 kts 109°
2026-04-16 14:54 35.31231 32.03533 16828 ft 393 kts 108°
2026-04-16 14:54 35.30399 32.06703 16250 ft 389 kts 108°
2026-04-16 14:54 35.29571 32.09846 15709 ft 387 kts 108°
2026-04-16 14:54 35.28730 32.12964 15162 ft 384 kts 108°
2026-04-16 14:55 35.27890 32.16056 14632 ft 381 kts 108°
2026-04-16 14:55 35.27068 32.19127 14107 ft 378 kts 108°
2026-04-16 14:55 35.26264 32.22181 13594 ft 376 kts 107°
2026-04-16 14:55 35.25469 32.25214 13016 ft 373 kts 107°
2026-04-16 14:56 35.24684 32.28217 12455 ft 369 kts 107°
2026-04-16 14:56 35.23904 32.31186 11908 ft 364 kts 107°
2026-04-16 14:56 35.23393 32.33128 11546 ft 362 kts 107°
2026-04-16 14:56 35.22626 32.36046 11100 ft 356 kts 107°
2026-04-16 14:57 35.21870 32.38930 10858 ft 356 kts 107°
2026-04-16 14:57 35.21114 32.41800 10676 ft 353 kts 107°
2026-04-16 14:57 35.20116 32.45581 10754 ft 353 kts 107°
2026-04-16 14:57 35.19362 32.48439 10779 ft 354 kts 107°
2026-04-16 14:58 35.18849 32.50379 10707 ft 353 kts 107°
2026-04-16 14:58 35.17348 32.56052 10795 ft 353 kts 107°
2026-04-16 14:58 35.16593 32.58906 10790 ft 354 kts 107°
2026-04-16 14:59 35.15835 32.61768 10783 ft 354 kts 107°
2026-04-16 14:59 35.15075 32.64633 10789 ft 355 kts 108°
2026-04-16 14:59 35.14311 32.67506 10788 ft 356 kts 108°
2026-04-16 14:59 35.13544 32.70381 10788 ft 356 kts 108°
2026-04-16 15:00 35.12777 32.73257 10794 ft 356 kts 108°
2026-04-16 15:00 35.12010 32.76133 10801 ft 356 kts 108°
2026-04-16 15:00 35.11243 32.79008 10800 ft 356 kts 108°
2026-04-16 15:00 35.10475 32.81883 10796 ft 356 kts 108°
2026-04-16 15:01 35.09705 32.84763 10804 ft 356 kts 108°
2026-04-16 15:01 35.08937 32.87630 10794 ft 356 kts 108°
2026-04-16 15:01 35.08165 32.90513 10489 ft 357 kts 108°
2026-04-16 15:01 35.07382 32.93382 10135 ft 356 kts 109°
2026-04-16 15:02 35.06568 32.96226 9789 ft 354 kts 110°
2026-04-16 15:02 35.05733 32.99051 9398 ft 352 kts 110°
2026-04-16 15:02 35.04906 33.01848 9117 ft 349 kts 110°
2026-04-16 15:02 35.04097 33.04629 8872 ft 347 kts 109°
2026-04-16 15:03 35.03333 33.07289 8846 ft 345 kts 109°
2026-04-16 15:03 35.02542 33.10056 8973 ft 346 kts 109°
2026-04-16 15:03 35.01747 33.12831 9003 ft 347 kts 109°
2026-04-16 15:03 35.00945 33.15609 8957 ft 347 kts 109°
2026-04-16 15:04 35.00144 33.18374 8946 ft 348 kts 110°
2026-04-16 15:04 34.99331 33.21175 8870 ft 349 kts 110°
2026-04-16 15:04 34.98521 33.23964 8628 ft 348 kts 109°
2026-04-16 15:04 34.97717 33.26741 8364 ft 346 kts 109°
2026-04-16 15:05 34.96919 33.29505 8140 ft 345 kts 109°
2026-04-16 15:05 34.96122 33.32253 7890 ft 343 kts 109°
2026-04-16 15:05 34.95327 33.34985 7641 ft 341 kts 109°
2026-04-16 15:05 34.94534 33.37705 7312 ft 340 kts 109°
2026-04-16 15:06 34.93747 33.40405 6960 ft 336 kts 109°
2026-04-16 15:06 34.92954 33.43076 6597 ft 334 kts 110°
2026-04-16 15:06 34.92067 33.45686 6252 ft 332 kts 112°
2026-04-16 15:06 34.91118 33.48241 5883 ft 330 kts 113°
2026-04-16 15:07 34.90134 33.50754 5521 ft 327 kts 113°
2026-04-16 15:07 34.89131 33.53232 5148 ft 325 kts 113°
2026-04-16 15:07 34.88123 33.55685 4788 ft 324 kts 115°
2026-04-16 15:07 34.87113 33.58129 4423 ft 321 kts 115°
2026-04-16 15:08 34.86101 33.60541 4129 ft 319 kts 114°
2026-04-16 15:08 34.85085 33.62932 3887 ft 318 kts 115°
2026-04-16 15:08 34.84066 33.65317 3621 ft 317 kts 116°
2026-04-16 15:08 34.82779 33.67503 3321 ft 322 kts 131°
2026-04-16 15:09 34.81003 33.69119 3009 ft 325 kts 149°
2026-04-16 15:09 34.78859 33.70012 2674 ft 329 kts 168°
2026-04-16 15:09 34.76567 33.70069 2355 ft 332 kts 185°
2026-04-16 15:09 34.74324 33.69367 2097 ft 334 kts 198°
2026-04-16 15:10 34.72161 33.68317 1872 ft 335 kts 202°
2026-04-16 15:10 34.70042 33.67139 1864 ft 336 kts 204°
2026-04-16 15:10 34.67927 33.65904 1983 ft 338 kts 205°
2026-04-16 15:10 34.65808 33.64650 1993 ft 340 kts 205°
2026-04-16 15:11 34.63681 33.63382 1955 ft 340 kts 206°
2026-04-16 15:11 34.61651 33.61947 1917 ft 337 kts 216°
2026-04-16 15:11 34.59821 33.60168 1954 ft 337 kts 221°
2026-04-16 15:11 34.58098 33.58238 1950 ft 336 kts 225°
2026-04-16 15:12 34.56684 33.55995 1905 ft 335 kts 243°
2026-04-16 15:12 34.55911 33.53359 1930 ft 333 kts 263°
2026-04-16 15:12 34.55841 33.50583 1930 ft 328 kts 282°
2026-04-16 15:12 34.56464 33.47946 1951 ft 324 kts 297°
2026-04-16 15:13 34.57624 33.45645 1941 ft 317 kts 313°
2026-04-16 15:13 34.59145 33.43753 1938 ft 311 kts 323°
2026-04-16 15:13 34.60843 33.42149 1925 ft 308 kts 332°
2026-04-16 15:13 34.62751 33.41153 1915 ft 300 kts 351°
2026-04-16 15:14 34.64798 33.40953 1960 ft 288 kts
2026-04-16 15:14 34.66693 33.41202 1967 ft 261 kts 12°
2026-04-16 15:14 34.68417 33.41414 1950 ft 239 kts
2026-04-16 15:14 34.69997 33.41691 1934 ft 220 kts 19°
2026-04-16 15:15 34.71293 33.42517 1944 ft 204 kts 37°
2026-04-16 15:15 34.72389 33.43664 1996 ft 211 kts 43°
2026-04-16 15:15 34.73384 33.44845 1987 ft 190 kts 44°
2026-04-16 15:15 34.74296 33.45988 1908 ft 188 kts 46°
2026-04-16 15:16 34.75185 33.47164 1966 ft 189 kts 46°
2026-04-16 15:16 34.76064 33.48355 1979 ft 190 kts 48°
2026-04-16 15:16 34.76938 33.49537 1865 ft 183 kts 46°
2026-04-16 15:16 34.77731 33.50647 1803 ft 168 kts 47°
2026-04-16 15:17 34.78492 33.51728 1697 ft 169 kts 47°
2026-04-16 15:17 34.79252 33.52806 1572 ft 167 kts 48°
2026-04-16 15:17 34.80043 33.53844 1441 ft 167 kts 46°
2026-04-16 15:17 34.80820 33.54830 1369 ft 154 kts 46°
2026-04-16 15:18 34.81578 33.55672 1217 ft 143 kts 39°
2026-04-16 15:18 34.82348 33.56449 1134 ft 140 kts 40°
2026-04-16 15:18 34.83064 33.57226 993 ft 136 kts 43°
2026-04-16 15:18 34.83743 33.58042 852 ft 144 kts 39°
2026-04-16 15:19 34.84523 33.58835 895 ft 149 kts 43°
2026-04-16 15:19 34.85251 33.59762 738 ft 152 kts 44°
2026-04-16 15:19 34.85984 33.60669 286 ft 149 kts 46°
2026-04-16 15:19 34.86700 33.61558 27 ft 145 kts 44°
2026-04-16 15:20 34.87390 33.62405 19 ft 139 kts 46°
2026-04-16 15:20 34.88072 33.63249 18 ft 144 kts 46°
2026-04-16 15:20 34.88820 33.63981 14 ft 117 kts 33°
2026-04-16 15:20 34.89374 33.64273 12 ft 57 kts 28°
2026-04-16 15:21 34.89389 33.64282 12 ft 54 kts 27°